Terug naar catalogus

CZ-6A DEB

ActiefPO
NORAD 61476·DEBRIS·🇨🇳 China

Gelanceerd Aug 6, 2024 vanaf Taiyuan Satellite Launch Center

Loading…

Volgende Passages (komende 24 uur)

TLE

VersSource: Space-Track

Epoch: Sep 14, 2026, 11:12 UTC

1 61476U 24140AAJ 26257.46725296  .00000129  00000-0  67756-4 0  9995
2 61476  88.9761 264.9779 0103830 306.6359  52.5309 14.05807067104003

Volg CZ-6A DEB in realtime met AllMySat

Download on the App Store